SCP
0 0 0 0 0 0 0 0 0 0 0 0 0 0 0 0 0 0 0 0 0 0 0 0 0 0 0 0 0 0 0 0 0 0 0 0 0 0 0 0 0 0 0
0 0 0 0 0 0 0 0 0 0 0 0 0 0 0 0 0 0 0 0 0 0 0 0 0 0 0 0 0 0 0 0 0 0 0 0 0 0 0 0 0 0 0
0 0 0 0 0 0 0 0 0 0 0 0 0 0 0 0 0 0 0 0 0 0 0 0 0 0 0 0 0 0 0 0 0 0 0 0 0 0 0 0 0 0 0
0 0 0 0 0 0 0 0 0 0 0 0 0 0 0 0 0 0 0 0 0 0 0 0 0 0 0 0 0 0 0 0 0 0 0 0 0 0 0 0 0 0 0
0 0 0 0 0 0 0 0 0 0 0 0 0 0 0 0 0 0 0 0 0 0 0 0 0 0 0 0 0 0 0 0 0 0 0 0 0 0 0 0 0 0 0
0 0 0 0 0 0 0 0 0 0 0 0 0 0 0 0 0 0 0 0 0 0 0 0 0 0 0 0 0 0 0 0 0 0 0 0 0 0 0 0 0 0 0
0 0 0 0 0 0 0 0 0 0 0 0 0 0 0 0 0 0 0 0 0 0 0 0 0 0 0 0 0 0 0 0 0 0 0 0 0 0 0 0 0 0 0
0 0 0 0 0 0 0 0 0 0 0 0 0 0 0 0 0 0 0 0 0 0 0 0 0 0 0 0 0 0 0 0 0 0 0 0 0 0 0 0 0 0 0
0 0 0 0 0 0 0 0 0 0 0 0 0 0 0 0 0 0 0 0 0 0 0 0 0 0 0 0 0 0 0 0 0 0 0 0 0 0 0 0 0 0 0
0 0 0 0 0 0 0 0 0 0 0 0 0 0 0 0 0 0 0 0 0 0 0 0 0 0 0 0 0 0 0 0 0 0 0 0 0 0 0 0 0 0 0
0 0 0 0 0 0 0 0 0 0 0 0 0 0 0 0 0 0 0 0 0 0 0 0 0 0 0 0 0 0 0 0 0 0 0 0 0 0 0 0 0 0 0
0 0 0 0 0 0 0 0 0 0 0 0 0 0 0 0 0 0 0 0 0 0 0 0 0 0 0 0 0 0 0 0 0 0 0 0 0 0 0 0 0 0 0
0 0 0 0 0 0 0 0 0 0 0 0 0 0 0 0 0 0 0 0 0 0 0 0 0 0 0 0 0 0 0 0 0 0 0 0 0 0 0 0 0 0 0
0 0 0 0 0 0 0 0 0 0 0 0 0 0 0 0 0 0 0 0 0 0 0 0 0 0 0 0 0 0 0 0 0 0 0 0 0 0 0 0 0 0 0
0 0 0 0 0 0 0 0 0 0 0 0 0 0 0 0 0 0 0 0 0 0 0 0 0 0 0 0 0 0 0 0 0 0 0 0 0 0 0 0 0 0 0
0 0 0 0 0 0 0 0 0 0 0 0 0 0 0 0 0 0 0 0 0 0 0 0 0 0 0 0 0 0 0 0 0 0 0 0 0 0 0 0 0 0 0
0 0 0 0 0 0 0 0 0 0 0 0 0 0 0 0 0 0 0 0 0 0 0 0 0 0 0 0 0 0 0 0 0 0 0 0 0 0 0 0 0 0 0
0 0 0 0 0 0 0 0 0 0 0 0 0 0 0 0 0 0 0 0 0 0 0 0 0 0 0 0 0 0 0 0 0 0 0 0 0 0 0 0 0 0 0
0 0 0 0 0 0 0 0 0 0 0 0 0 0 0 0 0 0 0 0 0 0 0 0 0 0 0 0 0 0 0 0 0 0 0 0 0 0 0 0 0 0 0
0 0 0 0 0 0 0 0 0 0 0 0 0 0 0 0 0 0 0 0 0 0 0 0 0 0 0 0 0 0 0 0 0 0 0 0 0 0 0 0 0 0 0
0 0 0 0 0 0 0 0 0 0 0 0 0 0 0 0 0 0 0 0 0 0 0 0 0 0 0 0 0 0 0 0 0 0 0 0 0 0 0 0 0 0 0
0 0 0 0 0 0 0 0 0 0 0 0 0 0 0 0 0 0 0 0 0 0 0 0 0 0 0 0 0 0 0 0 0 0 0 0 0 0 0 0 0 0 0
0 0 0 0 0 0 0 0 0 0 0 0 0 0 0 0 0 0 0 0 0 0 0 0 0 0 0 0 0 0 0 0 0 0 0 0 0 0 0 0 0 0 0
0 0 0 0 0 0 0 0 0 0 0 0 0 0 0 0 0 0 0 0 0 0 0 0 0 0 0 0 0 0 -0 0 0 0 0 0 0 0 0 0 0 0 0
0 0 0 0 0 0 0 0 0 0 0 0 0 0 0 0 0 0 0 0 0 0 0 0 0 0 0 0 0 0 0 0 0 0 0 0 0 0 0 0 0 0 0
0 0 0 0 0 0 0 0 0 0 0 0 0 0 0 0 0 0 0 0 0 0 0 0 0 0 0 0 0 0 0 0 0 0 0 0 0 0 0 0 0 0 0
Wind_Speed
13 12 12 10 10 10 9 8 7 6 6 6 6 5 6 6 5 5 5 5 6 5 6 6 5 4 4 5 5 4 4 4 4 5 4 4 5 5 5 4 6 6 6
11 11 10 9 9 9 8 7 6 6 6 6 6 6 6 7 6 6 6 6 5 5 5 5 6 5 5 5 5 5 4 4 4 6 6 6 6 6 5 6 7 7 6
10 10 9 9 8 8 7 7 6 6 6 6 6 6 6 7 7 7 6 5 5 5 4 5 5 5 5 5 5 5 4 5 4 5 6 5 5 6 5 6 7 5 8
9 9 9 8 7 7 6 6 5 5 5 5 5 6 7 9 10 9 9 6 5 5 4 4 4 4 4 5 5 5 6 6 6 6 6 6 5 5 5 5 6 5 6
8 9 8 7 6 6 5 5 4 4 5 5 5 6 6 7 8 9 9 8 6 5 4 4 4 3 2 3 5 5 6 6 7 6 7 6 5 6 5 4 6 6 6
7 8 7 6 6 5 4 4 4 4 5 5 6 6 7 7 6 8 8 7 7 6 5 5 6 0 2 5 7 9 9 8 7 7 7 7 7 6 5 6 5 6 6
6 6 6 5 5 4 5 4 4 4 4 4 4 5 7 5 5 8 10 7 7 5 4 4 6 5 5 6 9 11 9 10 10 8 8 8 8 7 6 7 6 7 7
6 6 6 5 5 4 4 3 3 3 3 3 4 4 5 5 5 7 12 8 6 4 4 3 3 3 5 6 8 8 8 7 7 5 6 7 8 6 5 6 7 8 7
6 5 5 4 4 3 3 3 3 2 2 2 3 3 4 3 3 7 10 7 4 5 4 3 3 3 4 6 7 8 9 8 9 9 10 12 14 14 10 5 6 6 7
5 5 4 4 4 3 3 2 2 1 2 2 3 2 3 3 1 5 8 6 6 6 5 3 1 2 5 6 6 8 9 8 9 11 10 9 9 9 10 7 6 5 6
4 4 3 2 1 2 2 2 2 2 2 2 1 1 2 2 2 3 5 4 6 7 6 5 2 4 9 10 8 7 9 9 9 9 8 7 5 4 4 4 4 4 5
3 3 2 1 2 3 1 1 2 2 2 0 0 0 2 3 1 1 5 7 7 6 6 6 6 12 14 14 10 10 13 11 7 6 6 5 5 4 4 4 4 4 4
2 1 0 1 2 2 2 2 1 1 2 2 2 2 2 1 1 2 6 10 10 6 6 11 14 15 13 10 9 11 9 6 5 5 5 5 5 4 4 3 3 3 4
0 1 1 1 1 1 1 3 3 4 4 4 3 3 3 2 5 5 6 7 9 7 8 12 14 13 9 9 9 6 4 4 4 4 5 5 4 4 4 3 3 3 3
1 1 1 1 1 1 3 4 5 5 4 4 5 5 4 4 4 5 5 6 7 7 9 8 6 5 4 3 3 4 3 3 4 4 4 4 4 4 4 3 2 3 2
2 3 2 1 1 2 4 4 6 5 4 3 2 3 2 3 6 9 10 11 13 11 7 6 5 4 4 4 4 4 4 4 4 4 4 4 4 4 4 4 3 3 3
2 2 2 1 1 1 2 3 4 3 1 2 4 5 6 8 9 11 12 14 16 12 5 4 4 4 4 5 5 4 4 5 5 5 5 5 5 5 4 4 4 3 3
2 1 2 1 0 1 1 1 1 2 3 3 5 8 9 10 11 12 12 11 8 4 3 3 4 4 5 5 5 5 5 5 5 5 5 5 5 5 5 4 3 4 4
2 1 1 1 1 0 1 1 1 1 1 0 2 4 7 9 11 13 10 5 5 4 5 5 5 4 5 5 5 5 6 5 6 6 6 7 6 5 5 4 3 5 4
1 1 2 2 1 1 1 1 2 2 2 1 1 2 1 2 2 3 2 3 4 4 5 5 5 5 5 6 6 6 6 6 7 7 7 8 7 6 6 6 5 3 3
2 4 4 3 0 1 2 2 2 2 2 2 2 3 3 3 3 3 3 3 4 4 4 5 6 6 6 6 7 8 9 8 8 8 9 9 9 7 5 5 5 4 4
2 2 3 1 3 3 2 2 2 2 2 2 1 2 0 2 3 3 3 4 4 4 4 4 6 6 7 8 8 7 8 9 9 9 10 10 10 8 6 5 5 4 4
4 1 2 3 4 4 1 2 2 2 2 2 2 2 2 2 3 3 3 3 3 3 4 4 4 6 7 6 7 7 8 8 9 10 10 10 10 8 7 6 7 6 5
2 1 3 4 3 3 2 2 2 2 2 2 2 2 2 2 2 3 3 3 3 3 3 4 5 8 10 8 7 8 8 8 9 9 12 11 11 7 7 7 6 7 6
0 2 3 4 3 3 3 2 2 2 2 1 1 2 2 2 2 2 3 3 3 4 5 5 4 7 10 12 11 10 10 11 9 8 10 10 10 7 8 8 7 6 5
2 3 3 4 4 3 3 2 2 2 1 1 2 2 1 2 3 3 3 3 4 3 4 4 7 10 11 10 12 12 11 13 14 13 10 8 7 6 8 6 9 7 7
Wind_Direction
79 79 81 82 84 84 83 84 84 84 81 77 75 72 69 59 46 36 37 43 36 27 16 15 10 6 6 345 351 345 343 343 325 317 317 320 321 313 307 302 294 283 278
84 84 83 83 82 84 84 83 80 76 74 71 65 60 62 57 43 34 28 30 28 21 12 5 2 4 1 357 347 337 337 325 321 317 316 313 314 305 300 299 302 303 302
87 85 83 82 81 81 80 77 73 68 63 63 61 56 53 50 38 23 17 17 18 11 7 1 356 359 0 358 332 335 331 332 323 309 306 304 304 304 310 308 307 304 303
87 86 84 83 83 82 80 77 77 78 71 61 61 59 60 51 35 17 2 4 6 358 0 352 350 1 7 350 332 345 340 329 318 313 306 306 307 315 324 319 313 310 304
89 90 90 90 88 85 81 76 68 63 71 63 62 60 66 64 34 17 352 355 350 344 350 343 333 344 351 298 317 330 323 319 316 314 312 314 322 330 329 319 314 312 304
97 100 100 99 98 97 94 80 68 58 53 52 51 54 56 53 35 14 357 339 328 332 342 336 320 343 313 298 298 296 287 289 298 303 304 310 313 316 319 315 315 318 314
110 112 111 106 101 94 87 80 69 63 60 55 47 63 87 70 23 360 353 325 309 316 324 324 334 2 18 357 332 314 299 286 267 265 283 292 299 308 318 316 316 313 303
105 102 102 101 92 85 83 74 63 56 55 57 50 55 88 79 16 356 342 318 303 314 320 322 333 7 30 354 327 319 315 312 297 275 265 277 288 296 301 298 296 298 294
105 99 92 89 87 81 74 63 51 39 32 52 68 61 81 105 14 352 347 320 332 338 333 349 341 1 28 350 326 320 319 317 323 322 292 278 277 279 275 282 289 300 308
96 90 80 70 69 68 57 39 24 358 9 24 62 67 73 92 81 341 344 336 349 341 333 330 64 341 337 336 325 316 313 319 325 317 309 297 283 276 266 244 259 283 299
94 91 85 68 48 95 72 21 345 359 21 4 20 100 110 104 174 277 321 333 344 334 331 330 360 339 330 324 313 288 290 307 306 301 304 304 300 292 281 256 240 247 275
93 89 80 5 353 72 68 354 330 328 312 265 238 143 137 149 149 244 292 298 299 307 315 329 334 325 318 311 302 288 298 305 294 304 311 312 313 311 303 290 271 254 249
106 107 159 353 34 26 0 339 332 340 352 21 23 31 46 69 125 299 308 306 306 298 317 325 316 308 307 300 296 300 302 293 302 315 318 316 312 306 305 303 299 286 282
168 245 237 208 166 110 7 11 29 23 14 8 19 21 21 35 34 8 347 338 344 345 343 322 312 302 292 281 291 296 286 292 307 315 315 312 314 315 311 314 315 309 305
279 283 280 254 139 118 84 47 40 63 48 16 12 6 9 14 11 336 326 325 329 328 325 308 309 322 335 336 332 329 322 328 331 323 321 324 327 331 328 326 326 328 329
269 272 265 202 167 151 136 122 60 84 110 79 36 353 357 360 326 322 320 315 309 310 312 303 316 335 342 345 346 343 344 344 339 331 332 337 341 340 334 332 337 339 337
281 303 313 324 164 171 153 159 159 155 211 269 278 289 295 306 307 308 313 318 307 301 289 302 333 342 343 343 346 348 345 341 338 340 344 345 345 340 335 337 344 344 342
269 208 285 306 348 81 114 131 149 165 182 203 226 249 267 280 290 296 309 321 312 321 334 344 352 350 348 345 348 351 346 347 351 347 346 342 340 337 335 338 347 353 341
312 329 287 333 292 115 103 104 88 62 61 91 164 202 241 263 274 281 290 292 316 355 4 357 351 354 354 349 350 350 347 352 357 351 348 340 336 335 335 339 352 357 349
194 241 294 293 258 142 90 73 76 61 57 44 31 47 12 292 301 311 312 331 357 9 8 353 345 357 0 354 355 353 356 3 0 353 344 337 334 334 339 343 348 348 351
207 173 215 251 270 83 72 60 57 55 60 55 59 62 350 326 339 356 7 11 11 8 10 350 346 4 8 360 357 1 9 5 358 350 341 334 331 333 334 340 343 349 360
296 184 186 160 103 78 59 67 63 57 61 47 26 111 274 319 4 9 12 13 13 9 9 356 359 12 12 4 359 10 9 0 351 343 334 330 329 330 335 340 342 345 360
258 205 138 120 115 121 157 106 89 68 68 63 30 30 32 17 23 18 16 14 16 13 8 3 12 19 14 10 4 20 12 353 336 325 324 323 322 326 334 339 343 352 1
270 128 128 125 123 130 117 103 90 70 65 59 29 31 41 35 20 21 20 17 20 17 18 15 28 28 20 20 9 13 9 343 326 317 318 314 314 329 338 337 341 354 1
308 98 112 117 114 113 111 109 102 88 71 53 29 37 41 36 25 30 34 9 12 32 24 22 36 41 21 20 14 3 346 332 326 322 315 310 316 335 342 341 345 350 4
84 81 100 112 109 107 114 117 112 106 98 76 53 51 32 37 43 35 37 8 6 37 32 19 50 57 29 15 6 357 345 338 334 328 319 308 325 352 348 345 348 355 6